Location: Zerbst
(51.9650°N, 12.0766°E)
Time: 11:40:48
(UTC+02:00)

ISS - Pass Details

Date: 17 May 2017
Orbit: 402 x 409 km, 51.6° (Epoch: 24 May)

Event Time Altitude Azimuth Distance (km) Brightness Sun altitude
Exits shadow 03:14:27 22° 244° (WSW) 932 -2.5 -13.6°
Maximum altitude 03:16:22 67° 166° (SSE) 443 -3.9 -13.4°
Drops below altitude 10° 03:19:37 10° 83° (E) 1,465 -0.5 -13.1°
Sets 03:21:43 0° 81° (E) 2,324 0.7 -13.0°
